| time (UTC) | temp F | wind direction | speed MPH | gust MPH | rain 1hr in | rain 24hr in | rain mn in | humidity % | barometer mb |
| 20260901195003 | 59 | 331 | 0.0 | 1.0 | 0.00 | 0.13 | 0.13 | 1 | 1010.6 |
| 20260901194503 | 59 | 322 | 0.0 | 1.0 | 0.00 | 0.13 | 0.13 | 1 | 1010.6 |
| 20260901194024 | 59 | 139 | 0.0 | 1.0 | 0.00 | 0.13 | 0.13 | 1 | 1010.5 |
| 20260901193503 | 59 | 139 | 0.0 | 1.0 | 0.00 | 0.13 | 0.13 | 1 | 1010.5 |
| 20260901193003 | 59 | 214 | 0.0 | 1.0 | 0.00 | 0.13 | 0.13 | 1 | 1010.5 |
| 20260901192523 | 59 | 261 | 0.0 | 1.0 | 0.00 | 0.13 | 0.13 | 1 | 1010.4 |
| 20260901192003 | 60 | 207 | 0.0 | 1.0 | 0.00 | 0.13 | 0.13 | 1 | 1010.4 |
| 20260901191503 | 60 | 323 | 0.0 | 1.0 | 0.00 | 0.13 | 0.13 | 1 | 1010.5 |
| 20260901191023 | 60 | 313 | 0.0 | 1.0 | 0.00 | 0.13 | 0.13 | 1 | 1010.4 |
| 20260901190503 | 60 | 285 | 0.0 | 1.0 | 0.00 | 0.13 | 0.13 | 1 | 1010.4 |
| 20260901190003 | 59 | 165 | 0.0 | 1.0 | 0.00 | 0.13 | 0.13 | 1 | 1010.5 |
| 20260901185503 | 59 | 193 | 0.0 | 1.0 | 0.00 | 0.13 | 0.13 | 1 | 1010.5 |
| 20260901185003 | 60 | 136 | 0.0 | 1.0 | 0.00 | 0.13 | 0.13 | 1 | 1010.4 |
| 20260901184503 | 60 | 4 | 0.0 | 1.0 | 0.00 | 0.13 | 0.13 | 1 | 1010.4 |
| 20260901184003 | 60 | 347 | 0.0 | 1.0 | 0.00 | 0.13 | 0.13 | 1 | 1010.4 |
| 20260901183503 | 60 | 347 | 0.0 | 2.0 | 0.00 | 0.13 | 0.13 | 1 | 1010.4 |
| 20260901183003 | 60 | 321 | 0.0 | 3.0 | 0.00 | 0.13 | 0.13 | 1 | 1010.4 |
| 20260901182503 | 60 | 303 | 0.0 | 3.0 | 0.00 | 0.13 | 0.13 | 1 | 1010.4 |
| 20260901182003 | 60 | 312 | 0.0 | 2.0 | 0.00 | 0.13 | 0.13 | 1 | 1010.4 |
| 20260901181502 | 60 | 282 | 0.0 | 2.0 | 0.00 | 0.13 | 0.13 | 1 | 1010.3 |
| 20260901181024 | 60 | 298 | 0.0 | 7.0 | 0.00 | 0.13 | 0.13 | 1 | 1010.3 |
| 20260901180503 | 60 | 309 | 0.0 | 7.0 | 0.00 | 0.13 | 0.13 | 3 | 1010.3 |
| 20260901180024 | 60 | 301 | 0.0 | 1.0 | 0.00 | 0.13 | 0.13 | 3 | 1010.3 |
| 20260901175503 | 60 | 307 | 0.0 | 1.0 | 0.00 | 0.13 | 0.13 | 7 | 1010.2 |
| 20260901175003 | 60 | 0 | 0.0 | 0.0 | 0.00 | 0.13 | 0.13 | 7 | 1010.2 |
| 20260901174503 | 61 | 114 | 0.0 | 1.0 | 0.00 | 0.13 | 0.13 | 10 | 1010.2 |
| 20260901174003 | 61 | 114 | 0.0 | 1.0 | 0.00 | 0.13 | 0.13 | 12 | 1010.2 |
| 20260901173503 | 61 | 319 | 0.0 | 2.0 | 0.00 | 0.13 | 0.13 | 13 | 1010.2 |
| 20260901173003 | 61 | 317 | 0.0 | 2.0 | 0.00 | 0.13 | 0.13 | 13 | 1010.2 |
| 20260901172502 | 61 | 324 | 0.0 | 2.0 | 0.00 | 0.13 | 0.13 | 12 | 1010.1 |
| 20260901172003 | 61 | 325 | 0.0 | 4.0 | 0.00 | 0.13 | 0.13 | 12 | 1010.1 |
| 20260901171503 | 61 | 325 | 0.0 | 4.0 | 0.00 | 0.14 | 0.13 | 10 | 1010.1 |
| 20260901171003 | 61 | 0 | 0.0 | 0.0 | 0.00 | 0.15 | 0.13 | 5 | 1010.1 |
| 20260901170503 | 61 | 0 | 0.0 | 0.0 | 0.00 | 0.16 | 0.13 | 9 | 1010.1 |
| 20260901170003 | 61 | 137 | 0.0 | 1.0 | 0.00 | 0.17 | 0.13 | 9 | 1010.0 |
| 20260901165503 | 62 | 112 | 0.0 | 2.0 | 0.00 | 0.17 | 0.13 | 13 | 1010.0 |
| 20260901165003 | 62 | 82 | 0.0 | 2.0 | 0.00 | 0.17 | 0.13 | 16 | 1009.9 |
| 20260901164503 | 62 | 317 | 0.0 | 1.0 | 0.00 | 0.18 | 0.13 | 18 | 1010.0 |
| 20260901164024 | 62 | 0 | 0.0 | 0.0 | 0.00 | 0.20 | 0.13 | 21 | 1009.9 |
| 20260901163524 | 62 | 303 | 0.0 | 1.0 | 0.00 | 0.21 | 0.13 | 27 | 1009.9 |
| 20260901163003 | 63 | 349 | 0.0 | 1.0 | 0.00 | 0.23 | 0.13 | 34 | 1009.9 |
| 20260901162524 | 63 | 355 | 0.0 | 1.0 | 0.00 | 0.25 | 0.13 | 36 | 1009.9 |
| 20260901162024 | 63 | 286 | 0.0 | 2.0 | 0.00 | 0.27 | 0.13 | 36 | 1009.9 |
| 20260901161503 | 64 | 297 | 0.0 | 5.0 | 0.00 | 0.29 | 0.13 | 38 | 1009.9 |
| 20260901161003 | 64 | 302 | 0.0 | 5.0 | 0.00 | 0.30 | 0.13 | 38 | 1009.8 |
| 20260901160503 | 64 | 305 | 0.0 | 3.0 | 0.00 | 0.31 | 0.13 | 36 | 1009.8 |
| 20260901160003 | 64 | 306 | 0.0 | 3.0 | 0.00 | 0.31 | 0.13 | 44 | 1009.7 |
| 20260901155503 | 65 | 304 | 0.0 | 3.0 | 0.00 | 0.31 | 0.13 | 40 | 1009.6 |
| 20260901155003 | 64 | 311 | 0.0 | 7.0 | 0.00 | 0.31 | 0.13 | 29 | 1009.6 |
| 20260901154503 | 65 | 314 | 0.0 | 7.0 | 0.00 | 0.31 | 0.13 | 37 | 1009.5 |
| 20260901154003 | 65 | 321 | 0.0 | 5.0 | 0.00 | 0.31 | 0.13 | 40 | 1009.5 |
| 20260901153503 | 66 | 319 | 0.0 | 3.0 | 0.00 | 0.31 | 0.13 | 46 | 1009.5 |
| 20260901153003 | 66 | 311 | 0.0 | 3.0 | 0.00 | 0.31 | 0.13 | 50 | 1009.5 |
| 20260901152503 | 66 | 311 | 0.0 | 5.0 | 0.00 | 0.31 | 0.13 | 44 | 1009.5 |
| 20260901152003 | 66 | 309 | 0.0 | 5.0 | 0.00 | 0.31 | 0.13 | 51 | 1009.5 |
| 20260901151502 | 66 | 288 | 0.0 | 3.0 | 0.00 | 0.31 | 0.13 | 48 | 1009.4 |
| 20260901151003 | 67 | 285 | 0.0 | 3.0 | 0.00 | 0.31 | 0.13 | 53 | 1009.5 |
| 20260901150503 | 67 | 288 | 0.0 | 4.0 | 0.00 | 0.31 | 0.13 | 55 | 1009.4 |
| 20260901150003 | 68 | 303 | 0.0 | 4.0 | 0.00 | 0.31 | 0.13 | 57 | 1009.4 |
| 20260901145503 | 68 | 320 | 0.0 | 2.0 | 0.00 | 0.31 | 0.13 | 54 | 1009.5 |
| 20260901145003 | 68 | 240 | 0.0 | 2.0 | 0.00 | 0.31 | 0.13 | 53 | 1009.4 |
| 20260901144503 | 68 | 289 | 0.0 | 3.0 | 0.00 | 0.31 | 0.13 | 55 | 1009.4 |
| 20260901144003 | 67 | 302 | 0.0 | 3.0 | 0.00 | 0.31 | 0.13 | 53 | 1009.4 |
| 20260901143503 | 67 | 314 | 0.0 | 9.0 | 0.00 | 0.31 | 0.13 | 56 | 1009.4 |
| 20260901143003 | 67 | 324 | 0.0 | 9.0 | 0.00 | 0.33 | 0.13 | 53 | 1009.4 |
| 20260901142503 | 67 | 321 | 0.0 | 3.0 | 0.00 | 0.35 | 0.13 | 52 | 1009.4 |
| 20260901142002 | 67 | 317 | 0.0 | 3.0 | 0.00 | 0.36 | 0.13 | 49 | 1009.3 |
| 20260901141502 | 67 | 256 | 0.0 | 1.0 | 0.00 | 0.39 | 0.13 | 50 | 1009.3 |
| 20260901141003 | 67 | 313 | 0.0 | 3.0 | 0.00 | 0.41 | 0.13 | 48 | 1009.3 |
| 20260901140503 | 67 | 314 | 0.0 | 3.0 | 0.00 | 0.43 | 0.13 | 54 | 1009.3 |
| 20260901140003 | 67 | 319 | 0.0 | 3.0 | 0.00 | 0.44 | 0.13 | 47 | 1009.3 |
| 20260901135503 | 67 | 317 | 0.0 | 3.0 | 0.00 | 0.44 | 0.13 | 47 | 1009.3 |
| 20260901135024 | 67 | 231 | 0.0 | 1.0 | 0.00 | 0.44 | 0.13 | 46 | 1009.4 |
| 20260901134503 | 67 | 129 | 0.0 | 1.0 | 0.00 | 0.44 | 0.13 | 47 | 1009.4 |
| 20260901134003 | 67 | 264 | 0.0 | 3.0 | 0.00 | 0.44 | 0.13 | 49 | 1009.4 |
| 20260901133503 | 67 | 267 | 0.0 | 3.0 | 0.00 | 0.44 | 0.13 | 54 | 1009.4 |
| 20260901133003 | 68 | 288 | 0.0 | 1.0 | 0.00 | 0.44 | 0.13 | 47 | 1009.4 |
| 20260901132524 | 68 | 287 | 0.0 | 1.0 | 0.00 | 0.44 | 0.13 | 47 | 1009.3 |
| 20260901132002 | 68 | 300 | 0.0 | 1.0 | 0.00 | 0.44 | 0.13 | 55 | 1009.3 |
| 20260901131503 | 68 | 316 | 0.0 | 1.0 | 0.00 | 0.44 | 0.13 | 54 | 1009.4 |
| 20260901131003 | 68 | 306 | 0.0 | 2.0 | 0.00 | 0.44 | 0.13 | 50 | 1009.4 |
| 20260901130502 | 68 | 303 | 0.0 | 2.0 | 0.00 | 0.44 | 0.13 | 53 | 1009.4 |
| 20260901130003 | 68 | 274 | 0.0 | 1.0 | 0.00 | 0.44 | 0.13 | 52 | 1009.4 |
| 20260901125503 | 68 | 272 | 0.0 | 1.0 | 0.00 | 0.44 | 0.13 | 55 | 1009.3 |
| 20260901125003 | 69 | 268 | 0.0 | 1.0 | 0.00 | 0.44 | 0.13 | 55 | 1009.3 |
| 20260901124503 | 69 | 235 | 0.0 | 2.0 | 0.00 | 0.44 | 0.13 | 51 | 1009.3 |
| 20260901124003 | 69 | 255 | 0.0 | 2.0 | 0.00 | 0.44 | 0.13 | 57 | 1009.3 |
| 20260901123503 | 69 | 305 | 0.0 | 2.0 | 0.00 | 0.44 | 0.13 | 55 | 1009.2 |
| 20260901123003 | 69 | 288 | 0.0 | 3.0 | 0.00 | 0.44 | 0.13 | 58 | 1009.2 |
| 20260901122503 | 69 | 286 | 0.0 | 3.0 | 0.00 | 0.44 | 0.13 | 58 | 1009.1 |
| 20260901122023 | 70 | 321 | 0.0 | 2.0 | 0.00 | 0.44 | 0.13 | 57 | 1009.2 |
| 20260901121503 | 70 | 305 | 0.0 | 2.0 | 0.00 | 0.44 | 0.13 | 59 | 1009.2 |
| 20260901121003 | 71 | 294 | 0.0 | 2.0 | 0.00 | 0.44 | 0.13 | 60 | 1009.2 |
| 20260901120503 | 71 | 302 | 0.0 | 2.0 | 0.00 | 0.44 | 0.13 | 56 | 1009.2 |
| 20260901120024 | 70 | 341 | 0.0 | 2.0 | 0.00 | 0.44 | 0.13 | 57 | 1009.2 |
| 20260901115502 | 70 | 305 | 0.0 | 1.0 | 0.00 | 0.44 | 0.13 | 48 | 1009.2 |
| 20260901115003 | 69 | 309 | 0.0 | 1.0 | 0.00 | 0.44 | 0.13 | 55 | 1009.1 |
| 20260901114524 | 69 | 309 | 0.0 | 3.0 | 0.00 | 0.44 | 0.13 | 51 | 1009.1 |
| 20260901114024 | 68 | 307 | 0.0 | 3.0 | 0.00 | 0.44 | 0.13 | 47 | 1009.1 |
| 20260901113503 | 68 | 278 | 0.0 | 1.0 | 0.00 | 0.44 | 0.13 | 47 | 1009.2 |
| 20260901113024 | 67 | 345 | 0.0 | 1.0 | 0.00 | 0.44 | 0.13 | 42 | 1009.2 |
| 20260901112503 | 67 | 323 | 0.0 | 2.0 | 0.00 | 0.44 | 0.13 | 48 | 1009.2 |
| 20260901112003 | 67 | 311 | 0.0 | 2.0 | 0.00 | 0.44 | 0.13 | 44 | 1009.1 |
| 20260901111502 | 67 | 0 | 0.0 | 0.0 | 0.00 | 0.44 | 0.13 | 31 | 1009.1 |
| 20260901111003 | 66 | 0 | 0.0 | 0.0 | 0.00 | 0.44 | 0.13 | 17 | 1009.2 |
| 20260901110503 | 66 | 0 | 0.0 | 0.0 | 0.00 | 0.44 | 0.13 | 26 | 1009.1 |
| 20260901110003 | 65 | 178 | 0.0 | 1.0 | 0.00 | 0.44 | 0.13 | 19 | 1009.1 |
| 20260901105503 | 66 | 166 | 0.0 | 1.0 | 0.00 | 0.44 | 0.13 | 26 | 1009.1 |
| 20260901105003 | 66 | 320 | 0.0 | 1.0 | 0.00 | 0.44 | 0.13 | 25 | 1009.1 |
| 20260901104503 | 66 | 304 | 0.0 | 1.0 | 0.00 | 0.44 | 0.13 | 27 | 1009.0 |
| 20260901104003 | 66 | 337 | 0.0 | 2.0 | 0.00 | 0.44 | 0.13 | 24 | 1009.0 |
| 20260901103503 | 66 | 318 | 0.0 | 3.0 | 0.00 | 0.44 | 0.13 | 27 | 1008.9 |
| 20260901103003 | 66 | 314 | 0.0 | 3.0 | 0.00 | 0.44 | 0.13 | 43 | 1008.8 |
| 20260901102503 | 66 | 117 | 0.0 | 1.0 | 0.00 | 0.44 | 0.13 | 23 | 1008.8 |
| 20260901102003 | 66 | 302 | 0.0 | 1.0 | 0.00 | 0.44 | 0.13 | 25 | 1008.8 |
| 20260901101523 | 65 | 302 | 0.0 | 2.0 | 0.00 | 0.44 | 0.13 | 26 | 1008.8 |
| 20260901101002 | 65 | 304 | 0.0 | 3.0 | 0.00 | 0.44 | 0.13 | 36 | 1008.7 |
| 20260901100502 | 66 | 306 | 0.0 | 3.0 | 0.00 | 0.44 | 0.13 | 30 | 1008.6 |
| 20260901100003 | 65 | 248 | 0.0 | 2.0 | 0.00 | 0.44 | 0.13 | 18 | 1008.5 |
| 20260901095503 | 65 | 272 | 0.0 | 2.0 | 0.00 | 0.44 | 0.13 | 15 | 1008.5 |
| 20260901095024 | 65 | 315 | 0.0 | 2.0 | 0.00 | 0.44 | 0.13 | 29 | 1008.4 |
| 20260901094503 | 66 | 327 | 0.0 | 2.0 | 0.00 | 0.44 | 0.13 | 29 | 1008.4 |
| 20260901094003 | 66 | 0 | 0.0 | 0.0 | 0.00 | 0.44 | 0.13 | 22 | 1008.3 |
| 20260901093503 | 66 | 0 | 0.0 | 0.0 | 0.00 | 0.44 | 0.13 | 9 | 1008.3 |
| 20260901093003 | 65 | 0 | 0.0 | 0.0 | 0.00 | 0.44 | 0.13 | 2 | 1008.2 |
| 20260901092503 | 64 | 318 | 0.0 | 1.0 | 0.00 | 0.44 | 0.13 | 1 | 1008.1 |
| 20260901092024 | 64 | 317 | 0.0 | 1.0 | 0.00 | 0.44 | 0.13 | 1 | 1008.0 |
| 20260901091503 | 64 | 321 | 0.0 | 2.0 | 0.00 | 0.44 | 0.13 | 1 | 1008.0 |
| 20260901091002 | 64 | 325 | 0.0 | 2.0 | 0.00 | 0.44 | 0.13 | 1 | 1008.0 |
| 20260901090502 | 63 | 336 | 0.0 | 1.0 | 0.00 | 0.44 | 0.13 | 1 | 1008.0 |
| 20260901090003 | 63 | 292 | 0.0 | 1.0 | 0.00 | 0.44 | 0.13 | 1 | 1008.0 |
| 20260901085503 | 62 | 293 | 0.0 | 1.0 | 0.00 | 0.44 | 0.13 | 1 | 1008.0 |
| 20260901085003 | 63 | 127 | 0.0 | 1.0 | 0.00 | 0.44 | 0.13 | 1 | 1008.0 |
| 20260901084503 | 63 | 0 | 0.0 | 1.0 | 0.00 | 0.44 | 0.13 | 1 | 1008.0 |
| 20260901084003 | 62 | 278 | 0.0 | 1.0 | 0.00 | 0.44 | 0.13 | 1 | 1008.0 |
| 20260901083503 | 63 | 304 | 0.0 | 2.0 | 0.00 | 0.44 | 0.13 | 1 | 1007.9 |
| 20260901083003 | 63 | 305 | 0.0 | 2.0 | 0.00 | 0.44 | 0.13 | 1 | 1007.9 |
| 20260901082503 | 63 | 0 | 0.0 | 0.0 | 0.00 | 0.44 | 0.13 | 1 | 1007.9 |
| 20260901082024 | 63 | 287 | 0.0 | 1.0 | 0.00 | 0.44 | 0.13 | 1 | 1007.8 |
| 20260901081502 | 63 | 287 | 0.0 | 1.0 | 0.00 | 0.44 | 0.13 | 1 | 1007.7 |
| 20260901081003 | 62 | 23 | 0.0 | 1.0 | 0.00 | 0.44 | 0.13 | 1 | 1007.7 |
| 20260901080502 | 62 | 66 | 0.0 | 1.0 | 0.00 | 0.44 | 0.13 | 1 | 1007.8 |
| 20260901080003 | 62 | 120 | 0.0 | 1.0 | 0.00 | 0.44 | 0.13 | 1 | 1007.7 |
| 20260901075503 | 62 | 0 | 0.0 | 0.0 | 0.00 | 0.44 | 0.13 | 1 | 1007.7 |
| 20260901075003 | 61 | 0 | 0.0 | 0.0 | 0.00 | 0.44 | 0.13 | 1 | 1007.7 |
| 20260901074503 | 61 | 0 | 0.0 | 0.0 | 0.00 | 0.44 | 0.13 | 1 | 1007.7 |
| 20260901074003 | 61 | 0 | 0.0 | 0.0 | 0.00 | 0.44 | 0.13 | 1 | 1007.7 |
| 20260901073524 | 61 | 0 | 0.0 | 0.0 | 0.00 | 0.44 | 0.13 | 1 | 1007.7 |
| 20260901073003 | 61 | 0 | 0.0 | 0.0 | 0.00 | 0.44 | 0.13 | 1 | 1007.7 |
| 20260901072503 | 61 | 0 | 0.0 | 0.0 | 0.00 | 0.44 | 0.13 | 1 | 1007.6 |
| 20260901072003 | 60 | 0 | 0.0 | 0.0 | 0.00 | 0.44 | 0.13 | 1 | 1007.6 |
| 20260901071502 | 60 | 0 | 0.0 | 0.0 | 0.00 | 0.44 | 0.13 | 1 | 1007.6 |
| 20260901071024 | 60 | 0 | 0.0 | 0.0 | 0.00 | 0.44 | 0.13 | 1 | 1007.6 |
| 20260901070503 | 60 | 0 | 0.0 | 0.0 | 0.00 | 0.44 | 0.13 | 1 | 1007.5 |
| 20260901070003 | 60 | 0 | 0.0 | 0.0 | 0.00 | 0.44 | 0.13 | 1 | 1007.5 |
| 20260901065524 | 60 | 0 | 0.0 | 0.0 | 0.00 | 0.44 | 0.13 | 1 | 1007.5 |
| 20260901065003 | 59 | 0 | 0.0 | 0.0 | 0.00 | 0.44 | 0.13 | 1 | 1007.5 |
| 20260901064503 | 59 | 0 | 0.0 | 0.0 | 0.00 | 0.44 | 0.13 | 1 | 1007.5 |
| 20260901064003 | 59 | 0 | 0.0 | 0.0 | 0.00 | 0.44 | 0.13 | 1 | 1007.4 |
| 20260901063503 | 59 | 0 | 0.0 | 0.0 | 0.00 | 0.44 | 0.13 | 1 | 1007.4 |
| 20260901063003 | 59 | 0 | 0.0 | 0.0 | 0.00 | 0.44 | 0.13 | 1 | 1007.4 |
| 20260901062503 | 59 | 0 | 0.0 | 0.0 | 0.00 | 0.44 | 0.13 | 1 | 1007.3 |
| 20260901062024 | 59 | 0 | 0.0 | 0.0 | 0.00 | 0.44 | 0.13 | 1 | 1007.3 |
| 20260901061502 | 59 | 0 | 0.0 | 0.0 | 0.00 | 0.44 | 0.13 | 1 | 1007.3 |
| 20260901061002 | 59 | 0 | 0.0 | 0.0 | 0.00 | 0.44 | 0.13 | 1 | 1007.2 |
| 20260901060503 | 59 | 0 | 0.0 | 0.0 | 0.00 | 0.44 | 0.13 | 1 | 1007.1 |
| 20260901060003 | 59 | 0 | 0.0 | 0.0 | 0.00 | 0.44 | 0.13 | 1 | 1007.2 |
| 20260901055503 | 59 | 0 | 0.0 | 0.0 | 0.00 | 0.44 | 0.13 | 1 | 1007.2 |
| 20260901055003 | 59 | 0 | 0.0 | 0.0 | 0.00 | 0.44 | 0.13 | 1 | 1007.2 |
| 20260901054503 | 59 | 0 | 0.0 | 0.0 | 0.00 | 0.44 | 0.13 | 1 | 1007.1 |
| 20260901054003 | 59 | 0 | 0.0 | 0.0 | 0.00 | 0.44 | 0.13 | 1 | 1007.1 |
| 20260901053503 | 59 | 0 | 0.0 | 0.0 | 0.00 | 0.44 | 0.13 | 1 | 1007.1 |
| 20260901053003 | 59 | 0 | 0.0 | 0.0 | 0.00 | 0.44 | 0.13 | 1 | 1007.1 |
| 20260901052503 | 58 | 0 | 0.0 | 0.0 | 0.00 | 0.44 | 0.13 | 1 | 1007.1 |
| 20260901052004 | 58 | 0 | 0.0 | 0.0 | 0.00 | 0.44 | 0.13 | 1 | 1007.0 |
| 20260901051503 | 58 | 0 | 0.0 | 0.0 | 0.00 | 0.44 | 0.13 | 1 | 1007.0 |
| 20260901051024 | 58 | 0 | 0.0 | 0.0 | 0.00 | 0.44 | 0.13 | 1 | 1007.0 |
| 20260901050524 | 58 | 0 | 0.0 | 0.0 | 0.00 | 0.44 | 0.13 | 1 | 1007.0 |
| 20260901050003 | 58 | 0 | 0.0 | 0.0 | 0.00 | 0.44 | 0.13 | 1 | 1006.8 |
| 20260901045502 | 58 | 0 | 0.0 | 0.0 | 0.00 | 0.44 | 0.13 | 1 | 1006.8 |
| 20260901045003 | 58 | 0 | 0.0 | 0.0 | 0.00 | 0.44 | 0.13 | 1 | 1006.8 |
| 20260901044505 | 58 | 0 | 0.0 | 0.0 | 0.00 | 0.44 | 0.13 | 1 | 1006.7 |
| 20260901044024 | 58 | 0 | 0.0 | 0.0 | 0.00 | 0.44 | 0.13 | 1 | 1006.7 |
| 20260901043503 | 58 | 0 | 0.0 | 0.0 | 0.00 | 0.44 | 0.13 | 1 | 1006.6 |
| 20260901043003 | 58 | 0 | 0.0 | 0.0 | 0.00 | 0.44 | 0.13 | 1 | 1006.6 |
| 20260901042503 | 58 | 0 | 0.0 | 0.0 | 0.00 | 0.44 | 0.13 | 1 | 1006.6 |
| 20260901042003 | 58 | 0 | 0.0 | 0.0 | 0.00 | 0.44 | 0.13 | 1 | 1006.6 |
| 20260901041503 | 58 | 0 | 0.0 | 0.0 | 0.00 | 0.44 | 0.13 | 1 | 1006.6 |
| 20260901041003 | 58 | 0 | 0.0 | 0.0 | 0.00 | 0.44 | 0.13 | 1 | 1006.5 |
| 20260901040502 | 58 | 0 | 0.0 | 0.0 | 0.00 | 0.44 | 0.13 | 1 | 1006.5 |
| 20260901040003 | 58 | 0 | 0.0 | 0.0 | 0.00 | 0.44 | 0.13 | 1 | 1006.5 |
| 20260901035502 | 58 | 0 | 0.0 | 0.0 | 0.00 | 0.44 | 0.13 | 1 | 1006.4 |
| 20260901035003 | 58 | 0 | 0.0 | 0.0 | 0.00 | 0.44 | 0.13 | 1 | 1006.5 |
| 20260901034503 | 58 | 0 | 0.0 | 0.0 | 0.00 | 0.44 | 0.13 | 1 | 1006.4 |
| 20260901034003 | 58 | 0 | 0.0 | 0.0 | 0.00 | 0.44 | 0.13 | 1 | 1006.4 |
| 20260901033524 | 58 | 0 | 0.0 | 0.0 | 0.00 | 0.44 | 0.13 | 1 | 1006.3 |
| 20260901033003 | 58 | 0 | 0.0 | 0.0 | 0.00 | 0.44 | 0.13 | 1 | 1006.3 |
| 20260901032503 | 58 | 0 | 0.0 | 0.0 | 0.00 | 0.44 | 0.13 | 1 | 1006.3 |
| 20260901032003 | 58 | 0 | 0.0 | 0.0 | 0.00 | 0.44 | 0.13 | 1 | 1006.3 |
| 20260901031524 | 58 | 0 | 0.0 | 0.0 | 0.00 | 0.44 | 0.13 | 1 | 1006.3 |
| 20260901031002 | 58 | 0 | 0.0 | 0.0 | 0.00 | 0.44 | 0.13 | 1 | 1006.2 |
| 20260901030503 | 58 | 0 | 0.0 | 0.0 | 0.00 | 0.44 | 0.13 | 1 | 1006.2 |
| 20260901030003 | 58 | 0 | 0.0 | 0.0 | 0.00 | 0.44 | 0.13 | 1 | 1006.2 |
| 20260901025524 | 57 | 0 | 0.0 | 0.0 | 0.00 | 0.44 | 0.13 | 1 | 1006.2 |
| 20260901025003 | 57 | 0 | 0.0 | 0.0 | 0.00 | 0.44 | 0.13 | 1 | 1006.2 |
| 20260901024503 | 57 | 0 | 0.0 | 0.0 | 0.00 | 0.44 | 0.13 | 1 | 1006.2 |
| 20260901024002 | 57 | 0 | 0.0 | 0.0 | 0.00 | 0.44 | 0.13 | 1 | 1006.2 |
| 20260901023503 | 57 | 0 | 0.0 | 0.0 | 0.00 | 0.44 | 0.13 | 1 | 1006.1 |
| 20260901023024 | 57 | 0 | 0.0 | 0.0 | 0.00 | 0.44 | 0.13 | 1 | 1006.1 |
| 20260901022503 | 57 | 0 | 0.0 | 0.0 | 0.00 | 0.44 | 0.13 | 1 | 1006.1 |
| 20260901022003 | 57 | 0 | 0.0 | 0.0 | 0.00 | 0.44 | 0.13 | 1 | 1006.0 |
| 20260901021503 | 57 | 0 | 0.0 | 0.0 | 0.00 | 0.44 | 0.13 | 1 | 1006.0 |
| 20260901021002 | 57 | 0 | 0.0 | 0.0 | 0.00 | 0.44 | 0.13 | 1 | 1006.0 |
| 20260901020502 | 58 | 0 | 0.0 | 0.0 | 0.00 | 0.44 | 0.13 | 1 | 1006.0 |
| 20260901020002 | 58 | 0 | 0.0 | 0.0 | 0.00 | 0.44 | 0.13 | 1 | 1006.0 |
| 20260901015503 | 58 | 0 | 0.0 | 0.0 | 0.00 | 0.44 | 0.13 | 1 | 1005.9 |
| 20260901015003 | 58 | 0 | 0.0 | 0.0 | 0.00 | 0.44 | 0.13 | 1 | 1005.9 |
| 20260901014503 | 58 | 0 | 0.0 | 0.0 | 0.00 | 0.44 | 0.13 | 1 | 1005.9 |
| 20260901014003 | 58 | 0 | 0.0 | 0.0 | 0.00 | 0.44 | 0.13 | 1 | 1005.8 |
| 20260901013503 | 58 | 0 | 0.0 | 0.0 | 0.00 | 0.44 | 0.13 | 1 | 1005.8 |
| 20260901013003 | 58 | 0 | 0.0 | 0.0 | 0.00 | 0.45 | 0.13 | 1 | 1005.9 |
| 20260901012503 | 58 | 0 | 0.0 | 0.0 | 0.00 | 0.45 | 0.13 | 1 | 1005.9 |
| 20260901012003 | 58 | 0 | 0.0 | 0.0 | 0.00 | 0.45 | 0.13 | 1 | 1005.8 |
| 20260901011503 | 58 | 0 | 0.0 | 0.0 | 0.03 | 0.45 | 0.13 | 1 | 1005.8 |
| 20260901011003 | 58 | 0 | 0.0 | 0.0 | 0.04 | 0.45 | 0.13 | 1 | 1005.8 |
| 20260901010503 | 58 | 0 | 0.0 | 0.0 | 0.07 | 0.45 | 0.13 | 1 | 1005.8 |
| 20260901010003 | 58 | 0 | 0.0 | 0.0 | 0.13 | 0.45 | 0.13 | 1 | 1005.8 |
| 20260901005503 | 58 | 0 | 0.0 | 0.0 | 0.13 | 0.45 | 0.13 | 1 | 1005.7 |
| 20260901005024 | 58 | 0 | 0.0 | 0.0 | 0.13 | 0.45 | 0.13 | 1 | 1005.7 |
| 20260901004503 | 58 | 0 | 0.0 | 0.0 | 0.13 | 0.45 | 0.13 | 1 | 1005.7 |
| 20260901004003 | 58 | 0 | 0.0 | 0.0 | 0.13 | 0.45 | 0.13 | 1 | 1005.8 |
| 20260901003503 | 58 | 0 | 0.0 | 0.0 | 0.13 | 0.45 | 0.13 | 1 | 1005.7 |
| 20260901003024 | 58 | 0 | 0.0 | 0.0 | 0.13 | 0.45 | 0.13 | 1 | 1005.7 |
| 20260901002503 | 58 | 0 | 0.0 | 0.0 | 0.13 | 0.45 | 0.13 | 1 | 1005.7 |
| 20260901002003 | 58 | 0 | 0.0 | 0.0 | 0.13 | 0.45 | 0.13 | 1 | 1005.7 |
| 20260901001503 | 58 | 0 | 0.0 | 0.0 | 0.10 | 0.42 | 0.10 | 1 | 1005.7 |
| 20260901001003 | 58 | 0 | 0.0 | 0.0 | 0.09 | 0.41 | 0.09 | 1 | 1005.6 |
| 20260901000502 | 58 | 0 | 0.0 | 0.0 | 0.06 | 0.38 | 0.06 | 1 | 1005.7 |
| 20260901000003 | 58 | 0 | 0.0 | 0.0 | 0.00 | 0.31 | 0.00 | 1 | 1005.7 |
| 20260831235503 | 58 | 0 | 0.0 | 0.0 | 0.00 | 0.31 | 0.00 | 1 | 1005.7 |
| 20260831235003 | 58 | 0 | 0.0 | 0.0 | 0.00 | 0.31 | 0.00 | 1 | 1005.7 |
| 20260831234502 | 57 | 0 | 0.0 | 0.0 | 0.00 | 0.31 | 0.00 | 1 | 1005.7 |
| 20260831234003 | 57 | 0 | 0.0 | 0.0 | 0.00 | 0.31 | 0.00 | 1 | 1005.6 |
| 20260831233503 | 57 | 0 | 0.0 | 0.0 | 0.00 | 0.31 | 0.00 | 1 | 1005.6 |
| 20260831233003 | 57 | 0 | 0.0 | 0.0 | 0.00 | 0.31 | 0.00 | 1 | 1005.6 |
| 20260831232503 | 57 | 0 | 0.0 | 0.0 | 0.00 | 0.31 | 0.00 | 1 | 1005.6 |
| 20260831232003 | 57 | 0 | 0.0 | 0.0 | 0.00 | 0.31 | 0.00 | 1 | 1005.6 |
| 20260831231503 | 58 | 0 | 0.0 | 0.0 | 0.00 | 0.31 | 0.00 | 1 | 1005.6 |
| 20260831231024 | 58 | 0 | 0.0 | 0.0 | 0.00 | 0.31 | 0.00 | 1 | 1005.6 |
| 20260831230503 | 58 | 0 | 0.0 | 0.0 | 0.00 | 0.31 | 0.00 | 1 | 1005.7 |
| 20260831230003 | 58 | 0 | 0.0 | 0.0 | 0.00 | 0.31 | 0.00 | 1 | 1005.7 |
| 20260831225504 | 58 | 0 | 0.0 | 0.0 | 0.00 | 0.31 | 0.00 | 1 | 1005.7 |
| 20260831225003 | 58 | 0 | 0.0 | 0.0 | 0.00 | 0.31 | 0.00 | 1 | 1005.7 |
| 20260831224524 | 58 | 0 | 0.0 | 0.0 | 0.00 | 0.31 | 0.00 | 1 | 1005.7 |
| 20260831224003 | 57 | 0 | 0.0 | 0.0 | 0.00 | 0.31 | 0.00 | 1 | 1005.6 |
| 20260831223503 | 57 | 0 | 0.0 | 0.0 | 0.00 | 0.31 | 0.00 | 1 | 1005.6 |
| 20260831223003 | 57 | 0 | 0.0 | 0.0 | 0.00 | 0.31 | 0.00 | 1 | 1005.6 |
| 20260831222503 | 57 | 0 | 0.0 | 0.0 | 0.00 | 0.31 | 0.00 | 1 | 1005.6 |
| 20260831222003 | 57 | 0 | 0.0 | 0.0 | 0.00 | 0.31 | 0.00 | 1 | 1005.6 |
| 20260831221503 | 57 | 0 | 0.0 | 0.0 | 0.00 | 0.31 | 0.00 | 1 | 1005.6 |
| 20260831221024 | 57 | 0 | 0.0 | 0.0 | 0.00 | 0.31 | 0.00 | 1 | 1005.6 |
| 20260831220503 | 57 | 0 | 0.0 | 0.0 | 0.00 | 0.31 | 0.00 | 1 | 1005.6 |
| 20260831220004 | 57 | 0 | 0.0 | 0.0 | 0.00 | 0.31 | 0.00 | 1 | 1005.6 |
| 20260831215524 | 57 | 0 | 0.0 | 0.0 | 0.00 | 0.31 | 0.31 | 1 | 1005.5 |
| 20260831215003 | 57 | 0 | 0.0 | 0.0 | 0.00 | 0.31 | 0.31 | 1 | 1005.5 |
| 20260831214524 | 57 | 0 | 0.0 | 0.0 | 0.00 | 0.31 | 0.31 | 1 | 1005.5 |
| 20260831214003 | 57 | 0 | 0.0 | 0.0 | 0.00 | 0.31 | 0.31 | 1 | 1005.4 |
| 20260831213503 | 57 | 0 | 0.0 | 0.0 | 0.00 | 0.31 | 0.31 | 1 | 1005.5 |
| 20260831213003 | 57 | 0 | 0.0 | 0.0 | 0.00 | 0.31 | 0.31 | 1 | 1005.5 |
| 20260831212503 | 57 | 0 | 0.0 | 0.0 | 0.00 | 0.31 | 0.31 | 1 | 1005.4 |
| 20260831212003 | 58 | 0 | 0.0 | 0.0 | 0.00 | 0.31 | 0.31 | 1 | 1005.3 |
| 20260831211503 | 58 | 0 | 0.0 | 0.0 | 0.00 | 0.31 | 0.31 | 1 | 1005.3 |
| 20260831211003 | 58 | 0 | 0.0 | 0.0 | 0.00 | 0.31 | 0.31 | 1 | 1005.3 |
| 20260831210503 | 58 | 0 | 0.0 | 0.0 | 0.00 | 0.31 | 0.31 | 1 | 1005.3 |
| 20260831210002 | 58 | 0 | 0.0 | 0.0 | 0.00 | 0.31 | 0.31 | 1 | 1005.3 |
| 20260831205502 | 58 | 0 | 0.0 | 0.0 | 0.00 | 0.31 | 0.31 | 1 | 1005.4 |
| 20260831205003 | 58 | 0 | 0.0 | 0.0 | 0.00 | 0.31 | 0.31 | 1 | 1005.4 |
| 20260831204502 | 58 | 0 | 0.0 | 0.0 | 0.00 | 0.31 | 0.31 | 1 | 1005.3 |
| 20260831204024 | 58 | 0 | 0.0 | 0.0 | 0.00 | 0.31 | 0.31 | 1 | 1005.4 |
| 20260831203524 | 58 | 0 | 0.0 | 0.0 | 0.00 | 0.31 | 0.31 | 1 | 1005.4 |
| 20260831203003 | 58 | 0 | 0.0 | 0.0 | 0.00 | 0.31 | 0.31 | 1 | 1005.4 |
| 20260831202503 | 58 | 0 | 0.0 | 0.0 | 0.00 | 0.31 | 0.31 | 1 | 1005.4 |
| 20260831202003 | 58 | 0 | 0.0 | 0.0 | 0.00 | 0.31 | 0.31 | 1 | 1005.4 |
| 20260831201503 | 58 | 0 | 0.0 | 0.0 | 0.00 | 0.31 | 0.31 | 1 | 1005.4 |
| 20260831201003 | 58 | 0 | 0.0 | 0.0 | 0.00 | 0.31 | 0.31 | 1 | 1005.4 |
| 20260831200503 | 58 | 0 | 0.0 | 0.0 | 0.00 | 0.31 | 0.31 | 1 | 1005.4 |
| 20260831200002 | 58 | 0 | 0.0 | 0.0 | 0.00 | 0.31 | 0.31 | 1 | 1005.4 |
| 20260831195524 | 58 | 0 | 0.0 | 0.0 | 0.00 | 0.31 | 0.31 | 1 | 1005.4 |